[[{"header":{"parameterUnit":"m.s-1","parameterCategory":1,"la1":30.2991,"la2":30.254,"lo1":-89.0895,"lo2":-89.0444,"dy":0.0017,"dx":0.0017,"nx":28,"ny":28,"refTime":"2024-07-01T03:00:00:Z","depth":0,"parameterNumber":2,"parameterNumberName":"U-component_of_WINDS"},"data":[0,0,0,0,0,0,0,0,0,0,0,0,0,0,0,0,0,0,0,0,0,0,0,0,0,0,0,0,0,0,0,0,0,0,0,0,0,0,0,0,0,0,0,0,0,0,0,0,0,0,0,0,0,0,0,0,0,0,-1.5023,-1.5022,0,-1.4957,-1.4956,-1.4955,-1.4934,-1.4935,-1.4935,-1.4935,-1.4868,-1.4866,-1.4864,0,0,0,0,0,0,0,0,0,0,0,0,0,-1.5132,-1.513,-1.5023,-1.5022,-1.5021,-1.4957,-1.4956,-1.4955,-1.4934,-1.4935,-1.4935,-1.4935,-1.4869,-1.4866,-1.4864,0,0,0,0,0,0,0,0,0,0,0,0,0,-1.5077,-1.5129,-1.5023,-1.5003,-1.5001,-1.4957,-1.4956,-1.4955,-1.4934,-1.4935,-1.4935,-1.4936,-1.487,-1.4867,-1.4864,-1.4835,0,0,-1.4854,-1.4853,0,0,0,0,0,0,0,0,-1.508,-1.5073,-1.5007,-1.5004,-1.5002,-1.4954,-1.497,-1.4915,-1.4934,-1.4959,-1.4935,-1.4936,-1.4896,-1.4891,-1.4878,-1.4832,-1.4829,-1.4854,-1.4852,-1.4851,-1.485,0,0,0,0,0,0,0,-1.5084,-1.5076,-1.4997,-1.5006,-1.5003,-1.4998,-1.499,-1.4959,-1.4926,-1.4957,-1.4956,-1.4948,-1.4895,-1.4881,-1.4876,-1.4828,-1.4854,-1.4851,-1.4849,-1.4848,-1.4757,-1.4756,0,0,0,0,0,0,-1.5091,-1.5079,-1.4999,-1.4995,-1.5043,-1.4995,-1.4987,-1.4969,-1.4927,-1.492,-1.4948,-1.4947,-1.4886,-1.488,-1.4874,-1.4838,-1.4851,-1.4848,-1.4846,-1.4757,-1.4757,-1.4756,0,0,0,0,0,0,-1.5093,-1.5084,-1.5001,-1.5036,-1.5026,-1.4993,-1.4973,-1.4967,-1.4953,-1.4919,-1.4913,-1.4939,-1.4886,-1.4878,-1.4845,-1.4835,-1.4846,-1.4843,-1.4758,-1.4757,-1.4756,-1.4766,0,0,0,0,0,0,-1.5097,-1.5085,-1.5074,-1.5036,-1.5024,-1.4974,-1.4972,-1.4966,-1.4948,-1.4947,-1.491,-1.4904,-1.4886,-1.485,-1.4842,-1.4831,-1.4841,-1.4759,-1.4758,-1.4757,-1.4767,-1.4766,-1.4765,0,0,0,0,0,-1.5101,-1.5079,-1.5073,-1.5064,-1.5009,-1.4973,-1.4966,-1.4945,-1.4947,-1.4936,-1.4914,-1.4905,-1.4838,-1.4847,-1.4838,-1.4826,-1.4759,-1.4758,-1.4757,-1.4767,-1.4766,-1.4765,0,0,0,0,0,0,-1.5116,-1.5074,-1.5067,-1.5033,-1.5007,-1.497,-1.4954,-1.4945,-1.4918,-1.4918,-1.4894,-1.4886,-1.4855,-1.4837,-1.4848,-1.4797,-1.4798,-1.4795,-1.4809,-1.4808,-1.4807,-1.4812,-1.4838,0,0,0,0,0,-1.5116,-1.509,-1.5055,-1.5028,-1.5015,-1.4987,-1.4971,-1.4957,-1.493,-1.4919,-1.4894,-1.4868,-1.4841,-1.4824,-1.4797,-1.4764,-1.4756,-1.4752,-1.4751,-1.4751,-1.4748,-1.473,-1.4728,-1.4752,-1.4752,-1.4752,0,0,-1.5114,-1.5088,-1.5073,-1.503,-1.5009,-1.4983,-1.4978,-1.4951,-1.4932,-1.4914,-1.4882,-1.4863,-1.4832,-1.48,-1.4784,-1.4784,-1.474,-1.4749,-1.4749,-1.4747,-1.4729,-1.4727,-1.4725,-1.4751,-1.4751,-1.4751,0,0,-1.5099,-1.5076,-1.5051,-1.503,-1.4997,-1.4979,-1.4973,-1.4937,-1.4925,-1.4891,-1.4878,-1.4855,-1.4809,-1.4788,-1.4771,-1.4748,-1.4739,-1.474,-1.4736,-1.4719,-1.4717,-1.4715,-1.4707,-1.4704,-1.4738,-1.4738,-1.4738,0,-1.5101,-1.5061,-1.504,-1.5013,-1.4995,-1.4978,-1.4953,-1.4934,-1.4894,-1.4882,-1.4883,-1.4825,-1.4803,-1.4765,-1.4759,-1.4746,-1.4739,-1.4744,-1.4719,-1.4717,-1.4715,-1.4707,-1.4704,-1.4738,-1.4738,-1.4738,-1.4738,0,-1.5066,-1.5039,-1.5023,-1.4985,-1.4965,-1.4939,-1.4914,-1.4897,-1.4885,-1.4867,-1.4834,-1.4807,-1.4775,-1.4765,-1.4753,-1.4726,-1.4727,-1.4723,-1.4724,-1.4713,-1.4705,-1.4702,-1.4738,-1.4738,-1.4738,-1.4738,0,0,-1.5058,-1.5008,-1.5003,-1.4986,-1.4949,-1.4927,-1.4902,-1.487,-1.4855,-1.4829,-1.4807,-1.4768,-1.4765,-1.4746,-1.4732,-1.4717,-1.4701,-1.4715,-1.4714,-1.4713,-1.4669,-1.4672,-1.4668,-1.4695,-1.4694,-1.4694,-1.4672,0,-1.5037,-1.4989,-1.497,-1.4932,-1.4906,-1.4891,-1.4868,-1.4843,-1.4826,-1.4802,-1.4783,-1.4756,-1.4754,-1.4742,-1.4727,-1.4706,-1.4691,-1.4707,-1.4674,-1.4673,-1.4682,-1.4664,-1.4667,-1.4647,-1.4668,-1.4668,-1.4667,0,-1.5007,-1.498,-1.4939,-1.4905,-1.4894,-1.4874,-1.4844,-1.4821,-1.4793,-1.4781,-1.4761,-1.4747,-1.472,-1.4724,-1.4686,-1.4697,-1.4683,-1.4671,-1.4669,-1.4665,-1.4669,-1.4659,-1.464,-1.4637,-1.4662,-1.4663,-1.4663,0,-1.5005,-1.4958,-1.4928,-1.4914,-1.4874,-1.486,-1.4843,-1.4815,-1.4797,-1.4771,-1.4759,-1.4731,-1.4715,-1.4693,-1.4673,-1.4677,-1.4637,-1.4638,-1.4627,-1.4627,-1.4618,-1.4619,-1.4597,-1.461,-1.461,-1.461,-1.461,0,-1.4983,-1.4959,-1.4926,-1.4908,-1.488,-1.4858,-1.4832,-1.4813,-1.4789,-1.4767,-1.4752,-1.4732,-1.4706,-1.4683,-1.4667,-1.4638,-1.4631,-1.4621,-1.4617,-1.4622,-1.4624,-1.4612,-1.4613,-1.4609,-1.4609,-1.4609,-1.4609,0,-1.4976,-1.4953,-1.4919,-1.4884,-1.4875,-1.4856,-1.4827,-1.4808,-1.479,-1.4763,-1.4755,-1.4727,-1.4699,-1.4676,-1.464,-1.4629,-1.4599,-1.4595,-1.4608,-1.4606,-1.4596,-1.4597,-1.4564,-1.4559,-1.4576,-1.4576,-1.4576,0,-1.4964,-1.4945,-1.4908,-1.4892,-1.4875,-1.4849,-1.4831,-1.4809,-1.4791,-1.4758,-1.4743,-1.4714,-1.4689,-1.4645,-1.4622,-1.4594,-1.4589,-1.4579,-1.4584,-1.459,-1.4588,-1.459,-1.4588,-1.4579,-1.4578,-1.4578,-1.4578,0,-1.4945,-1.4935,-1.4909,-1.4879,-1.4858,-1.4834,-1.481,-1.4797,-1.4771,-1.4752,-1.4722,-1.4703,-1.4666,-1.4637,-1.4607,-1.4589,-1.458,-1.4577,-1.4573,-1.4578,-1.4586,-1.4581,-1.4606,-1.4578,-1.4578,-1.4578,-1.4578,-1.4578,-1.4935,-1.4917,-1.4889,-1.4861,-1.484,-1.4817,-1.4798,-1.4778,-1.4753,-1.4721,-1.4709,-1.468,-1.4653,-1.4611,-1.4593,-1.457,-1.4569,-1.4563,-1.4562,-1.456,-1.4561,-1.459,-1.4565,-1.4565,-1.4565,-1.4565,-1.4565,0,-1.4915,-1.4896,-1.487,-1.4836,-1.4815,-1.4807,-1.478,-1.4762,-1.4736,-1.4711,-1.4687,-1.4654,-1.4626,-1.4601,-1.4572,-1.4558,-1.4553,-1.4551,-1.4552,-1.4548,-1.4563,-1.457,-1.4556,-1.4556,-1.4556,-1.4556,-1.4556,-1.4556,-1.4902,-1.4872,-1.4859,-1.4818,-1.4799,-1.4769,-1.4754,-1.4734,-1.4714,-1.4677,-1.4654,-1.4638,-1.4613,-1.4582,-1.4557,-1.455,-1.454,-1.454,-1.4532,-1.4546,-1.4547,-1.4548,-1.4554,-1.4538,-1.4538,-1.4519,-1.4519,-1.4519]},{"header":{"parameterUnit":"m.s-1","parameterCategory":1,"la1":30.2991,"la2":30.254,"lo1":-89.0895,"lo2":-89.0444,"dy":0.0017,"dx":0.0017,"nx":28,"ny":28,"refTime":"2024-07-01T03:00:00:Z","depth":0,"parameterNumber":3,"parameterNumberName":"V-component_of_WINDS"},"data":[0,0,0,0,0,0,0,0,0,0,0,0,0,0,0,0,0,0,0,0,0,0,0,0,0,0,0,0,0,0,0,0,0,0,0,0,0,0,0,0,0,0,0,0,0,0,0,0,0,0,0,0,0,0,0,0,0,0,5.7628,5.7629,0,5.7671,5.7671,5.7672,5.7665,5.7664,5.7663,5.7663,5.7701,5.7703,5.7705,0,0,0,0,0,0,0,0,0,0,0,0,0,5.7537,5.7538,5.7628,5.7629,5.7629,5.7671,5.7671,5.7672,5.7665,5.7664,5.7663,5.7662,5.7701,5.7703,5.7705,0,0,0,0,0,0,0,0,0,0,0,0,0,5.7577,5.7539,5.7628,5.7631,5.7632,5.7671,5.7671,5.7672,5.7665,5.7664,5.7663,5.7662,5.77,5.7703,5.7705,5.7742,0,0,5.7713,5.7714,0,0,0,0,0,0,0,0,5.7575,5.7581,5.763,5.7631,5.7632,5.7662,5.7653,5.7695,5.7665,5.7652,5.7663,5.7661,5.7689,5.7692,5.7702,5.7744,5.7746,5.7713,5.7715,5.7716,5.7716,0,0,0,0,0,0,0,5.7572,5.7579,5.7645,5.7631,5.7632,5.7629,5.7633,5.7661,5.7676,5.7653,5.7653,5.7658,5.7689,5.77,5.7703,5.7746,5.7713,5.7715,5.7717,5.7718,5.7821,5.7822,0,0,0,0,0,0,5.7569,5.7576,5.7644,5.7646,5.76,5.7631,5.7636,5.7653,5.7676,5.7678,5.7659,5.7658,5.7696,5.77,5.7704,5.775,5.7716,5.7718,5.772,5.782,5.7822,5.7823,0,0,0,0,0,0,5.7567,5.7575,5.7642,5.7611,5.762,5.7634,5.7653,5.7654,5.7665,5.768,5.7682,5.7668,5.7695,5.7701,5.7733,5.7751,5.7719,5.7722,5.7819,5.7821,5.7822,5.7842,0,0,0,0,0,0,5.7565,5.7575,5.759,5.7612,5.7621,5.7672,5.7654,5.7656,5.767,5.7669,5.7689,5.7691,5.7695,5.773,5.7736,5.7754,5.7724,5.7817,5.7819,5.7822,5.784,5.7844,5.7848,0,0,0,0,0,5.7561,5.7593,5.7591,5.7599,5.7641,5.7673,5.7678,5.7683,5.7672,5.7687,5.7696,5.769,5.7748,5.7733,5.774,5.7759,5.7816,5.7819,5.7821,5.7838,5.7843,5.7848,0,0,0,0,0,0,5.7571,5.7595,5.7594,5.7633,5.7651,5.7672,5.7691,5.7689,5.7709,5.7706,5.771,5.7715,5.7748,5.7757,5.7739,5.7797,5.778,5.7785,5.779,5.7796,5.78,5.7797,5.7726,0,0,0,0,0,5.7578,5.7603,5.7622,5.7655,5.7665,5.7676,5.769,5.7693,5.771,5.7718,5.7729,5.7746,5.7768,5.7782,5.7803,5.784,5.7845,5.7857,5.7861,5.7865,5.7868,5.7889,5.7895,5.7832,5.7832,5.7832,0,0,5.7591,5.7608,5.7624,5.7658,5.7672,5.7697,5.7682,5.7709,5.7727,5.7721,5.7753,5.7762,5.7781,5.7816,5.7833,5.7825,5.7887,5.7868,5.7871,5.7873,5.7893,5.7899,5.7904,5.7834,5.7833,5.7833,0,0,5.763,5.7645,5.7675,5.769,5.7712,5.772,5.7727,5.7748,5.7754,5.7787,5.7783,5.7804,5.7841,5.7855,5.7867,5.7911,5.7906,5.7917,5.7939,5.7959,5.7964,5.7969,5.7985,5.7991,5.7921,5.7921,5.7921,0,5.7644,5.7684,5.769,5.7718,5.7733,5.773,5.7759,5.7773,5.78,5.781,5.78,5.7848,5.786,5.7899,5.791,5.792,5.7927,5.7915,5.7964,5.7968,5.7972,5.7988,5.7994,5.7922,5.7922,5.7922,5.7922,0,5.77,5.7727,5.7748,5.7777,5.7794,5.7822,5.7832,5.7848,5.7849,5.7857,5.789,5.7904,5.7928,5.7937,5.7938,5.7977,5.7971,5.7963,5.7946,5.798,5.7994,5.8,5.7924,5.7923,5.7923,5.7923,0,0,5.7746,5.7779,5.7787,5.78,5.7825,5.7845,5.7872,5.7898,5.7912,5.793,5.7953,5.7985,5.7978,5.7991,5.7993,5.8011,5.8046,5.8,5.8001,5.8009,5.809,5.8097,5.8103,5.8042,5.8044,5.8044,5.8088,0,5.7788,5.784,5.7846,5.7891,5.7916,5.7914,5.7938,5.7954,5.7963,5.7984,5.7991,5.8015,5.8003,5.8011,5.8029,5.8038,5.8062,5.8034,5.8063,5.8064,5.806,5.8111,5.8118,5.8159,5.8094,5.8095,5.8096,0,5.7844,5.7867,5.7915,5.7937,5.7947,5.7969,5.7993,5.8013,5.8032,5.8036,5.8052,5.8051,5.8079,5.8061,5.8098,5.8079,5.8091,5.8097,5.8099,5.8103,5.8083,5.8117,5.8172,5.8179,5.8105,5.8104,5.8103,0,5.7874,5.7916,5.7951,5.7962,5.7988,5.8003,5.8014,5.8032,5.8047,5.8067,5.8077,5.8099,5.8111,5.8128,5.8133,5.812,5.8171,5.8153,5.8175,5.8175,5.8186,5.8186,5.8246,5.8192,5.8192,5.8192,5.8192,0,5.7921,5.7951,5.7965,5.7986,5.8019,5.8025,5.8057,5.8067,5.8083,5.8105,5.8103,5.8124,5.8129,5.815,5.8153,5.8184,5.8189,5.8193,5.8194,5.8194,5.8194,5.8203,5.82,5.8194,5.8193,5.8193,5.8193,0,5.7961,5.7971,5.8009,5.8031,5.8037,5.8061,5.8078,5.8098,5.8106,5.8134,5.8141,5.8152,5.8177,5.8184,5.8213,5.8215,5.8252,5.8249,5.8246,5.8246,5.8268,5.8266,5.8337,5.8346,5.8286,5.8286,5.8287,0,5.799,5.8014,5.8039,5.8054,5.8067,5.8092,5.8108,5.8114,5.813,5.8153,5.817,5.8195,5.8215,5.8255,5.8265,5.8287,5.8285,5.8308,5.8289,5.8288,5.8287,5.8286,5.8288,5.8312,5.8313,5.8314,5.8314,0,5.8042,5.8047,5.8071,5.8097,5.8116,5.8136,5.8155,5.8168,5.8177,5.8195,5.8221,5.8237,5.8267,5.8292,5.8314,5.8324,5.832,5.832,5.8326,5.8327,5.8325,5.8327,5.8258,5.8319,5.8318,5.8318,5.8318,5.8317,5.8079,5.81,5.8121,5.8148,5.8163,5.8181,5.8201,5.8212,5.8235,5.8262,5.8263,5.8292,5.8309,5.8339,5.835,5.8371,5.8364,5.8373,5.8376,5.8378,5.8381,5.8321,5.8375,5.8375,5.8375,5.8375,5.8375,0,5.8132,5.8146,5.817,5.8198,5.8219,5.8215,5.8236,5.8253,5.8279,5.8296,5.8317,5.8347,5.837,5.8383,5.8406,5.8421,5.842,5.8427,5.8426,5.8428,5.8385,5.8378,5.8427,5.8427,5.8427,5.8427,5.8427,5.8427,5.8162,5.8197,5.8204,5.8247,5.8259,5.8289,5.8301,5.8318,5.8332,5.8366,5.8387,5.8395,5.841,5.8434,5.8455,5.8458,5.8467,5.8475,5.8477,5.8437,5.8431,5.8426,5.8419,5.8477,5.8477,5.8519,5.8519,5.8519]}]]